Location: Azul
(36.7830°S, 59.8500°W)
Time: 09:13:42
(UTC-03:00)

UKube-1 - Pass Details

Date: 01 November 2021
Orbit: 611 x 617 km, 98.4° (Epoch: 07 December)

Event Time Altitude Azimuth Distance (km) Brightness Sun altitude
Exits shadow 20:27:17 14° 49° (NE) 1,716 ? -10.8°
Maximum altitude 20:30:27 34° 109° (ESE) 1,028 ? -11.4°
Drops below altitude 10° 20:34:23 10° 174° (S) 2,003 ? -12.1°
Sets 20:36:43 0° 182° (S) 2,916 ? -12.5°
